CAPE
41 1 0 0 0 0 0 0 0 0 0 0 0 0 0 0 0 0 0 0 0 0 0 0 0 0 0 0 0 0 0 0 0 0 0 0 0 0 0 0 0 0 0
56 26 3 0 0 0 0 0 0 0 0 0 0 0 0 0 0 0 0 0 0 0 0 0 0 0 0 0 0 0 0 0 0 0 0 0 0 0 0 0 0 0 0
37 94 0 0 0 0 0 0 0 0 0 0 0 0 0 0 0 0 0 0 0 0 0 0 0 0 0 0 0 0 0 0 0 0 0 0 0 0 0 0 0 0 0
47 26 15 0 3 4 0 0 0 0 0 0 0 0 0 0 0 0 0 0 0 0 0 0 0 0 0 0 0 0 0 0 0 0 0 0 0 0 0 0 0 0 0
0 0 0 0 0 5 0 0 0 0 0 0 0 0 0 0 0 0 0 0 0 0 0 0 0 0 0 0 0 0 0 0 0 0 0 0 0 0 0 0 0 0 0
0 0 0 0 0 0 7 0 0 0 0 0 0 0 0 0 0 0 0 0 0 0 0 0 0 0 0 0 0 0 0 0 0 0 0 0 0 0 0 0 0 0 0
0 0 0 0 0 0 0 0 0 0 0 0 0 0 0 0 0 0 0 0 0 0 0 0 0 0 0 0 0 0 0 0 0 0 0 0 0 0 0 0 0 0 0
0 0 0 0 0 0 2 0 0 0 0 0 0 0 0 0 0 0 0 0 0 0 0 0 0 0 0 0 0 0 0 0 0 0 0 0 0 0 0 0 0 0 0
0 0 0 0 0 0 6 20 0 0 0 0 0 0 0 0 0 0 0 0 0 0 0 0 0 0 0 0 0 0 0 0 0 0 0 0 0 0 0 0 0 0 0
0 0 0 0 0 0 8 39 0 0 0 0 0 0 0 0 0 0 0 0 0 0 0 0 0 0 0 0 0 0 0 0 0 0 0 0 0 0 0 0 0 0 0
0 0 0 0 0 0 0 0 0 0 0 0 0 0 0 0 0 0 0 0 0 0 0 0 0 0 0 0 0 0 0 0 0 0 0 0 0 0 0 0 0 0 0
0 0 0 0 0 0 0 0 0 0 0 0 0 0 0 0 0 0 0 0 0 0 0 0 0 0 0 0 0 0 0 0 0 0 0 0 0 0 0 0 0 0 0
0 0 0 0 0 0 0 0 0 0 0 0 0 0 0 0 0 0 0 0 0 0 0 0 0 0 0 0 0 0 0 0 0 0 0 0 0 0 0 0 0 0 0
0 0 0 0 0 0 0 0 0 0 0 0 0 0 0 0 0 0 0 0 0 0 0 0 0 0 0 0 0 0 0 0 0 0 0 0 0 0 0 0 0 0 0
0 0 0 0 0 0 0 0 0 0 0 0 0 0 0 0 0 0 0 0 0 0 0 0 0 0 0 0 0 0 0 0 0 0 0 0 0 0 0 0 0 0 0
0 0 0 0 0 0 0 0 0 0 0 0 0 0 0 0 0 0 0 0 0 0 0 0 0 0 0 0 0 0 0 0 0 0 0 0 0 0 0 0 0 0 0
0 0 0 0 0 0 0 0 0 0 0 0 0 0 0 0 0 0 0 0 0 0 0 0 0 0 0 0 0 0 0 0 0 0 0 0 0 0 0 0 0 0 1
0 0 0 0 0 0 0 0 0 0 0 0 0 0 0 0 0 0 0 0 0 0 0 0 0 0 0 0 0 0 0 0 0 0 0 0 0 0 0 0 0 0 0
0 0 0 0 0 0 0 0 0 0 0 0 0 0 0 0 0 0 0 0 0 0 0 0 0 0 0 0 0 0 0 0 0 0 0 0 0 0 0 0 0 0 0
0 0 0 0 0 0 0 0 0 0 0 0 0 0 0 0 0 0 0 0 0 0 0 0 0 0 0 0 0 0 0 0 0 0 0 0 0 1 2 0 0 0 0
0 0 0 0 0 0 0 0 0 0 0 0 0 0 0 0 0 0 0 0 0 0 0 0 0 0 0 0 0 0 0 0 0 0 0 0 0 1 6 13 4 1 5
0 0 0 0 0 0 0 0 0 0 0 0 0 0 0 0 0 0 0 0 0 0 0 0 0 0 0 0 0 0 0 0 0 0 0 0 0 5 12 10 19 21 12
0 0 0 0 0 0 0 0 0 0 0 0 0 0 0 0 0 0 0 0 0 0 0 0 0 0 0 0 0 0 0 0 0 0 0 5 4 2 1 9 6 6 0
0 0 0 0 0 0 0 0 0 0 0 0 0 0 0 0 0 0 0 0 0 0 0 0 0 0 0 0 0 0 0 0 0 0 0 0 1 0 2 0 0 0 0
0 0 0 0 0 0 0 0 0 0 0 0 0 0 0 0 0 0 0 0 0 0 0 0 0 0 0 0 0 0 0 0 0 0 0 0 0 0 0 0 0 0 0
0 0 0 0 0 0 0 0 0 0 0 0 0 0 0 0 0 0 0 0 0 0 0 0 0 0 0 0 0 0 0 1 2 0 0 0 0 0 0 0 0 0 0
CIN
-16 -20 0 0 0 0 0 0 0 0 0 0 0 0 0 0 0 0 0 0 0 0 0 0 0 0 0 0 0 0 0 0 0 0 0 0 0 0 0 0 0 0 0
-8 -22 -47 0 0 0 0 0 0 0 0 0 0 0 0 0 0 0 0 0 0 0 0 0 0 0 0 0 0 0 0 0 0 0 0 0 0 0 0 0 0 0 0
-7 -2 0 0 -12 0 0 0 0 0 0 0 0 0 0 0 0 0 0 0 0 0 0 0 0 0 0 0 0 0 0 0 0 0 0 0 0 0 0 0 0 0 0
-89 -63 -134 -2 -60 -23 0 0 0 0 0 0 0 0 0 0 0 0 0 0 0 0 0 0 0 0 0 0 0 0 0 0 0 0 0 0 0 0 0 0 0 0 0
0 0 0 0 0 -103 -2 0 0 0 0 0 0 0 0 0 0 0 0 0 0 0 0 0 0 0 0 0 0 0 0 0 0 0 0 0 0 0 0 0 0 0 0
0 0 0 0 0 0 -75 0 0 0 0 0 0 0 0 0 0 0 0 0 0 0 0 0 0 0 0 0 0 0 0 0 0 0 0 0 0 0 0 0 0 0 0
0 0 0 0 0 0 0 0 0 0 0 0 0 0 0 0 0 0 0 0 0 0 0 0 0 0 0 0 0 0 0 0 0 0 0 0 0 0 0 0 0 0 0
0 0 0 0 0 0 -92 0 0 0 0 0 0 0 0 0 0 0 0 0 0 0 0 0 0 0 0 0 0 0 0 0 0 0 0 0 0 0 0 0 0 0 0
0 0 0 0 0 0 -125 -112 0 0 0 0 0 0 0 0 0 0 0 0 0 0 0 0 0 0 0 0 0 0 0 0 0 0 0 0 0 0 0 0 0 0 0
0 0 0 0 0 0 -73 -109 -53 0 0 0 0 0 0 0 0 0 0 0 0 0 0 0 0 0 0 0 0 0 0 0 0 0 0 0 0 0 0 0 0 0 0
0 0 0 0 0 0 0 0 0 0 0 0 0 0 0 0 0 0 0 0 0 0 0 0 0 0 0 0 0 0 0 0 0 0 0 0 0 0 0 0 0 0 0
0 0 0 0 0 0 0 0 0 0 0 0 0 0 0 0 0 0 0 0 0 0 0 0 0 0 0 0 0 0 0 0 0 0 0 0 0 0 0 0 0 0 0
0 0 0 0 0 0 0 0 0 0 0 0 0 0 0 0 0 0 0 0 0 0 0 0 0 0 0 0 0 0 0 0 0 0 0 0 0 0 0 0 0 0 0
0 0 0 0 0 0 0 0 0 0 0 0 0 0 0 0 0 0 0 0 0 0 0 0 0 0 0 0 0 0 0 0 0 0 0 0 0 0 0 0 0 0 0
0 0 0 0 0 0 0 0 0 0 0 0 0 0 0 0 0 0 0 0 0 0 0 0 0 0 0 0 0 0 0 0 0 0 0 0 0 0 0 0 0 0 0
0 0 0 0 0 0 0 0 0 0 0 0 0 0 0 0 0 0 0 0 0 0 0 0 0 0 0 0 0 0 0 0 0 0 0 0 0 0 0 0 0 0 0
0 0 0 0 0 0 0 0 0 0 0 0 0 0 0 0 0 0 0 0 0 0 0 0 0 0 0 0 0 0 0 0 0 0 0 0 0 0 0 0 0 0 0
0 0 0 0 0 0 0 0 0 0 0 0 0 0 0 0 0 0 0 0 0 0 0 0 0 0 0 0 0 0 0 0 0 0 0 0 0 0 0 0 0 0 0
0 0 0 0 0 0 0 0 0 0 0 0 0 0 0 0 0 0 0 0 0 0 0 0 0 0 0 0 0 0 0 0 0 0 0 0 0 0 0 0 0 0 0
0 0 0 0 0 0 0 0 0 0 0 0 0 0 0 0 0 0 0 0 0 0 0 0 0 0 0 0 0 0 0 0 0 0 0 0 0 -1 0 0 -1 0 0
0 0 0 0 0 0 0 0 0 0 0 0 0 0 0 0 0 0 0 0 0 0 0 0 0 0 0 0 0 0 0 0 0 0 0 0 0 0 0 0 -6 -13 0
0 0 0 0 0 0 0 0 0 0 0 0 0 0 0 0 0 0 0 0 0 0 0 0 0 0 0 0 0 0 0 0 0 0 0 0 0 0 0 -1 0 0 -1
0 0 0 0 0 0 0 0 0 0 0 0 0 0 0 0 0 0 0 0 0 0 0 0 0 0 0 0 0 0 0 0 0 0 0 0 0 0 0 -2 0 0 0
0 0 0 0 0 0 0 0 0 0 0 0 0 0 0 0 0 0 0 0 0 0 0 0 0 0 0 0 0 0 0 0 0 0 0 0 0 0 -2 0 0 0 0
0 0 0 0 0 0 0 0 0 0 0 0 0 0 0 0 0 0 0 0 0 0 0 0 0 0 0 0 0 0 0 0 0 0 0 0 0 0 0 0 0 0 0
0 0 0 0 0 0 0 0 0 0 0 0 0 0 0 0 0 0 0 0 0 0 0 0 0 0 0 0 0 0 0 0 0 0 0 0 0 0 0 0 0 0 0
Wind_Speed
7 7 5 5 9 9 12 11 9 7 5 4 4 4 3 3 2 3 7 5 5 5 5 3 4 3 4 3 4 2 4 4 2 4 3 2 2 3 3 4 5 4 4
5 8 8 5 6 8 8 10 10 8 6 4 4 4 4 2 3 4 4 5 5 4 5 5 3 4 4 4 4 4 2 2 2 3 3 3 2 0 2 3 4 5 3
17 11 10 7 3 7 8 11 11 9 7 7 4 4 4 4 3 3 3 3 5 3 3 4 4 4 4 4 2 3 4 3 2 3 3 1 3 3 1 2 3 5 2
15 15 12 12 10 5 5 7 9 9 7 8 7 10 8 7 4 4 4 4 6 5 4 5 4 3 3 5 3 2 3 3 4 2 3 3 3 2 1 1 2 4 3
15 14 13 13 10 9 8 9 9 10 9 8 8 7 6 4 6 6 8 5 5 6 6 5 6 4 4 3 5 3 4 2 4 2 2 2 2 3 3 1 1 1 1
11 9 8 10 10 12 9 11 13 14 12 12 11 12 9 9 9 8 7 5 4 5 6 6 6 6 5 5 3 4 6 5 5 3 4 3 2 2 3 2 1 2 2
9 9 10 8 9 9 12 12 14 13 14 14 12 12 10 10 12 11 8 9 6 4 6 6 6 5 5 6 5 6 5 4 4 4 3 4 4 3 2 2 1 0 3
4 8 9 9 9 10 7 13 16 14 14 15 14 10 9 7 8 10 8 8 8 8 9 8 7 8 7 6 5 4 4 6 5 7 5 4 4 3 2 2 2 3 2
2 0 6 7 9 8 11 10 9 12 12 14 12 10 10 12 11 12 10 8 8 7 9 9 11 9 8 7 7 4 4 5 5 5 4 3 3 3 3 2 2 3 2
5 5 4 5 7 7 10 12 13 16 13 12 13 12 12 11 9 10 11 11 11 12 10 9 9 10 8 7 7 6 5 6 3 3 5 3 2 3 1 1 1 1 3
7 6 6 6 5 5 7 11 14 14 13 13 14 12 11 11 10 10 9 9 11 12 10 9 9 9 9 8 7 7 6 6 6 4 4 3 4 2 2 2 1 1 2
7 7 7 6 6 6 7 7 13 14 16 15 15 14 11 9 12 11 10 10 10 8 10 6 7 7 7 7 7 7 6 6 5 5 5 3 3 2 1 1 3 2 3
7 7 7 7 7 6 6 5 6 10 11 15 15 14 14 15 14 13 13 11 11 11 14 7 5 5 7 7 6 7 6 6 6 5 4 2 2 1 1 2 3 3 4
2 3 5 5 5 5 5 6 5 5 4 8 11 12 14 13 13 14 12 17 10 11 13 8 5 6 6 7 7 6 6 6 5 5 4 1 1 1 2 2 4 4 4
5 4 6 5 4 4 3 1 5 8 8 8 9 11 12 14 15 14 14 11 16 11 13 11 5 6 6 6 7 6 6 5 4 3 3 3 5 5 4 2 4 4 3
6 6 2 5 5 5 5 6 5 4 7 8 8 10 11 13 14 15 14 13 16 12 13 12 9 7 5 12 11 7 5 5 4 2 2 2 2 5 8 8 11 9 4
5 5 5 6 6 7 6 5 6 8 6 9 10 11 12 12 13 14 15 15 16 12 12 10 9 8 6 13 11 8 4 3 2 2 1 1 2 4 4 7 10 11 15
5 6 4 3 7 7 6 6 5 8 11 9 10 12 13 13 12 13 14 12 12 11 11 9 8 9 6 12 9 7 3 1 2 2 2 3 4 4 6 4 4 5 6
4 3 5 4 7 10 9 9 10 10 11 12 12 13 14 14 12 11 11 11 11 9 8 8 9 9 6 11 8 5 2 1 2 3 3 4 4 8 11 4 6 6 6
4 4 5 3 7 7 12 12 12 13 12 12 13 13 14 15 16 16 15 10 10 9 8 7 6 10 7 10 8 5 2 1 2 2 3 7 8 9 9 5 5 6 8
6 5 6 6 7 8 9 10 10 12 12 14 14 14 13 13 13 12 11 10 9 9 8 7 5 6 6 6 6 4 2 1 1 2 3 3 10 11 12 15 7 6 11
6 6 6 6 6 7 11 9 11 10 12 13 14 14 13 11 11 13 10 10 10 9 8 7 4 4 4 6 5 5 3 2 0 2 3 3 10 14 15 12 15 18 16
7 6 7 6 5 6 9 9 7 13 14 15 14 13 13 12 11 12 11 8 7 6 5 4 4 4 3 4 8 5 3 3 3 2 6 10 11 15 12 11 14 14 4
7 6 7 7 7 7 8 7 11 11 13 13 13 13 13 12 10 8 8 7 5 5 5 5 4 4 4 4 3 3 1 4 4 5 4 6 12 14 9 7 5 3 3
7 7 9 9 10 10 10 14 13 15 12 12 12 12 11 11 10 8 7 6 5 7 6 4 4 4 3 3 5 2 2 3 5 5 0 2 3 2 3 3 4 3 3
6 7 9 9 10 11 11 16 19 18 17 13 11 11 11 10 10 9 7 9 10 11 12 10 6 3 3 2 3 5 7 8 8 1 1 2 3 3 3 3 3 3 7
Wind_Direction
207 197 175 184 149 149 153 159 160 185 146 142 141 134 157 128 109 127 137 152 138 134 128 129 132 132 129 161 137 111 98 40 72 83 47 35 123 110 111 130 126 118 108
205 178 183 162 168 164 162 160 170 175 158 151 158 141 140 134 121 112 114 128 135 140 139 145 171 134 119 119 125 130 108 60 58 162 154 157 322 45 173 119 138 145 141
171 193 170 161 328 177 181 179 176 170 165 167 150 127 102 82 87 127 118 131 132 126 126 141 137 134 136 143 153 137 131 141 5 74 148 118 188 132 257 179 154 155 176
170 175 160 149 156 262 205 174 165 167 173 169 161 169 165 160 178 156 151 148 134 131 107 111 106 95 96 112 122 104 124 117 144 54 61 73 128 151 80 318 188 165 196
179 170 173 168 173 164 229 189 167 172 175 176 167 169 175 169 152 156 146 150 151 145 137 129 119 110 96 96 105 83 76 63 123 126 127 83 61 75 119 152 310 343 7
175 189 180 172 176 180 198 191 184 186 177 179 180 181 179 173 154 156 160 159 153 146 145 139 130 117 115 109 106 89 84 85 84 88 72 90 98 47 66 64 52 173 266
170 172 176 183 186 189 202 184 184 191 186 184 185 189 189 175 168 165 164 158 158 157 165 150 138 132 131 128 125 106 98 98 93 90 90 78 72 68 74 93 313 348 307
241 202 197 194 198 209 201 185 179 196 187 185 190 192 180 171 174 167 163 170 172 167 163 149 143 129 128 123 111 111 112 103 91 81 66 89 77 69 74 109 111 327 296
293 268 227 217 219 213 200 192 203 200 196 190 182 198 188 172 177 169 167 166 159 160 161 158 138 138 138 137 132 122 118 103 100 104 89 90 97 85 79 78 107 154 277
285 273 254 254 229 227 220 205 194 191 200 187 188 187 190 178 169 167 170 165 154 153 157 147 142 138 141 135 123 118 118 104 105 104 100 90 72 60 46 156 175 149 187
212 227 247 231 239 256 240 210 197 200 194 189 184 184 190 165 163 168 163 164 150 149 146 147 144 144 138 128 126 131 130 126 127 121 106 95 107 78 18 15 19 276 227
201 195 221 243 234 244 261 220 192 194 191 187 178 183 175 174 156 150 150 149 140 127 104 112 133 143 136 131 138 131 127 134 138 126 108 95 89 86 340 328 286 263 278
210 213 208 215 230 246 253 250 227 205 195 180 181 175 165 164 156 148 137 133 133 138 123 119 125 156 127 124 125 121 130 126 116 111 103 99 80 10 333 325 308 291 290
350 274 234 256 206 216 245 253 200 175 156 172 169 164 154 154 145 136 134 130 130 133 120 131 150 147 129 125 113 119 122 124 121 116 127 122 68 300 350 326 308 306 315
299 275 224 225 204 209 247 321 69 115 123 136 153 163 155 147 143 134 141 131 136 147 127 124 141 141 128 122 122 126 125 124 117 138 169 195 213 207 247 279 276 285 284
316 312 252 201 189 187 181 130 119 109 131 140 153 150 144 140 138 135 135 142 126 154 140 138 149 146 120 125 119 116 138 141 149 184 239 241 289 271 277 289 296 278 262
313 304 275 200 189 181 160 150 142 134 138 142 139 143 138 136 138 140 144 154 141 146 133 137 140 125 130 135 128 129 111 114 157 210 225 325 307 337 294 293 306 304 294
337 325 288 224 170 148 140 135 141 143 137 140 142 139 137 136 138 143 142 133 133 135 136 138 144 128 141 136 139 131 117 149 239 230 235 238 265 273 294 289 287 280 275
272 271 285 257 161 145 149 151 169 157 153 153 153 148 144 139 136 135 130 135 141 137 137 142 138 135 136 140 132 130 119 175 263 253 238 239 253 257 284 282 277 278 284
247 255 257 226 162 160 151 162 177 167 167 165 159 155 155 155 157 154 148 139 138 136 136 130 122 137 138 143 146 135 133 101 270 306 330 313 292 275 297 297 280 298 280
258 260 257 210 184 162 152 165 176 179 166 159 159 156 155 148 141 129 129 132 130 125 120 120 129 129 137 152 146 147 136 191 329 355 332 298 312 316 312 302 299 265 295
254 246 253 235 193 176 162 174 186 172 160 155 151 149 146 139 135 130 123 126 127 127 131 137 124 128 143 143 161 178 193 268 23 281 271 313 306 298 301 310 311 315 319
238 228 226 232 222 181 177 184 173 149 152 148 147 141 133 129 129 131 127 121 120 117 122 133 145 153 156 175 182 187 223 252 246 238 261 291 314 308 308 305 309 323 325
247 217 207 209 209 183 165 149 149 146 145 147 141 136 128 129 124 124 117 121 119 144 152 156 153 152 160 174 177 162 99 308 285 283 278 292 309 311 309 325 320 332 334
245 199 206 211 201 187 189 142 154 149 151 152 143 132 128 126 126 120 136 133 164 165 157 156 153 152 161 185 148 161 225 233 248 283 281 321 305 312 313 324 334 342 328
246 222 213 208 201 191 199 162 154 157 154 162 148 148 148 142 138 135 108 137 131 120 121 118 122 96 151 200 252 259 271 276 287 313 252 279 287 303 323 318 302 301 313